Back to catalog

INTELSAT 1002

AliveCommunicationsGEO
NORAD 28358·PAYLOAD· XX

Launched Jun 16, 2004 from Baikonur Cosmodrome

Loading…

TLE

FreshSource: CelesTrak SupGP

Epoch: Sep 14, 2026, 00:00 UTC

1 28358C 04022A   26257.00000000  .00000076  00000+0  00000+0 0  2574
2 28358   0.0448 263.7449 0000059 173.6755 274.5665  1.00272176    19

Track INTELSAT 1002 in real time with AllMySat

Download on the App Store